Change the Weather History Date:

Friday, January 6, 2012

  Actual Average Record
Temperature  
Mean Temperature 52 °F -  
Max Temperature 69 °F 62 °F 79 °F (1993)
Min Temperature 35 °F 42 °F 14 °F (1999)
Degree Days  
Heating Degree Days 13    
Growing Degree Days 2 (Base 50)    
Moisture  
Dew Point 39 °F    
Average Humidity 70    
Maximum Humidity 100    
Minimum Humidity 31    
Precipitation  
Precipitation 0.00 in - - ()
Sea Level Pressure  
Sea Level Pressure 30.17 in    
Wind  
Wind Speed 2 mph (WSW)    
Max Wind Speed 13 mph    
Max Gust Speed 18 mph    
Visibility 9 miles    
Events      
Averages and records for this station are not official NWS values.
T = Trace of Precipitation, MM = Missing Value Source: NWS Daily Summary

Daily Weather History Graph

Daily Weather History Graph

Search for Another Location

Airport or City:

Trip Planner

Search our weather history database for the weather conditions in past years. The results will help you decide how hot, cold, wet, or windy it might be!

Date:

Astronomy

Jan. 06, 2012 Rise Set
Actual Time 7:25 AM EST 5:37 PM EST
Civil Twilight 6:58 AM EST 6:04 PM EST
Nautical Twilight 6:28 AM EST 6:34 PM EST
Astronomical Twilight 5:59 AM EST 7:03 PM EST
Moon 3:28 PM EST (1/6) 5:02 AM EST (1/6)
Length of Visible Light 11h 05m
Length of Day
10h 12m
Waxing Gibbous, 93% of the Moon is Illuminated
Jan 6
Waxing Gibbous
Jan 9
Full
Jan 16
Last Quarter
Jan 23
New
Jan 30
First Quarter

Hourly Weather History & Observations

Time (EST) Temp. Windchill Dew Point Humidity Pressure Visibility Wind Dir Wind Speed Gust Speed Precip Events Conditions
12:15 AM 39.2 °F - 35.6 °F 87% 30.19 in 10.0 mi Calm Calm - N/A   Clear
12:35 AM 37.4 °F - 35.6 °F 93% 30.18 in 10.0 mi Calm Calm - N/A   Clear
12:55 AM 37.4 °F - 35.6 °F 93% 30.17 in 10.0 mi Calm Calm - N/A   Clear
1:15 AM 37.4 °F - 33.8 °F 87% 30.17 in 10.0 mi Calm Calm - N/A   Clear
1:35 AM 37.4 °F - 35.6 °F 93% 30.17 in 10.0 mi Calm Calm - N/A   Clear
1:55 AM 37.4 °F - 35.6 °F 93% 30.17 in 10.0 mi Calm Calm - N/A   Clear
2:15 AM 37.4 °F - 35.6 °F 93% 30.17 in 10.0 mi Calm Calm - N/A   Clear
2:35 AM 37.4 °F - 35.6 °F 93% 30.18 in 10.0 mi Calm Calm - N/A   Clear
2:55 AM 37.4 °F - 35.6 °F 93% 30.18 in 10.0 mi Calm Calm - N/A   Clear
3:15 AM 37.4 °F - 35.6 °F 93% 30.17 in 10.0 mi Calm Calm - N/A   Clear
3:35 AM 37.4 °F - 35.6 °F 93% 30.17 in 10.0 mi Calm Calm - N/A   Clear
3:55 AM 37.4 °F - 35.6 °F 93% 30.17 in 10.0 mi Calm Calm - N/A   Clear
4:15 AM 37.4 °F - 35.6 °F 93% 30.16 in 10.0 mi Calm Calm - N/A   Clear
4:35 AM 35.6 °F - 35.6 °F 100% 30.16 in 2.5 mi Calm Calm - N/A   Clear
4:55 AM 37.4 °F - 35.6 °F 93% 30.16 in 10.0 mi Calm Calm - N/A   Clear
5:15 AM 35.6 °F - 35.6 °F 100% 30.17 in 7.0 mi Calm Calm - N/A   Clear
5:35 AM 35.6 °F - 35.6 °F 100% 30.18 in 3.0 mi Calm Calm - N/A   Clear
5:55 AM 35.6 °F - 35.6 °F 100% 30.19 in 10.0 mi Calm Calm - N/A   Clear
6:15 AM 35.6 °F - 35.6 °F 100% 30.19 in 7.0 mi Calm Calm - N/A   Clear
6:35 AM 35.6 °F - 33.8 °F 93% 30.19 in 7.0 mi Calm Calm - N/A   Clear
6:55 AM 35.6 °F - 33.8 °F 93% 30.19 in 1.5 mi Calm Calm - N/A   Unknown
7:15 AM 35.6 °F - 33.8 °F 93% 30.19 in 7.0 mi Calm Calm - N/A   Clear
7:35 AM 35.6 °F - 33.8 °F 93% 30.19 in 10.0 mi Calm Calm - N/A   Clear
7:55 AM 35.6 °F - 33.8 °F 93% 30.20 in 0.5 mi Calm Calm - N/A   Unknown
8:15 AM 37.4 °F - 35.6 °F 93% 30.20 in 7.0 mi Calm Calm - N/A   Clear
8:35 AM 42.8 °F - 41.0 °F 93% 30.21 in 10.0 mi Calm Calm - N/A   Clear
8:55 AM 46.4 °F 45.2 °F 44.6 °F 93% 30.21 in 10.0 mi West 3.5 mph - N/A   Clear
9:15 AM 50.0 °F - 44.6 °F 82% 30.22 in 10.0 mi West 4.6 mph - N/A   Clear
9:35 AM 51.8 °F - 44.6 °F 76% 30.22 in 10.0 mi West 3.5 mph - N/A   Clear
9:55 AM 53.6 °F - 44.6 °F 72% 30.23 in 10.0 mi Calm Calm - N/A   Clear
10:15 AM 55.4 °F - 42.8 °F 63% 30.23 in 10.0 mi SW 3.5 mph - N/A   Clear
10:35 AM 59.0 °F - 42.8 °F 55% 30.23 in 10.0 mi WSW 3.5 mph - N/A   Clear
10:55 AM 60.8 °F - 41.0 °F 48% 30.22 in 10.0 mi WSW 6.9 mph - N/A   Unknown
11:15 AM 62.6 °F - 39.2 °F 42% 30.21 in 10.0 mi WSW 6.9 mph - N/A   Unknown
11:35 AM 64.4 °F - 39.2 °F 40% 30.20 in 10.0 mi WSW 6.9 mph - N/A   Clear
11:55 AM 64.4 °F - 41.0 °F 42% 30.19 in 10.0 mi WSW 8.1 mph - N/A   Clear
12:15 PM 66.2 °F - 41.0 °F 40% 30.18 in 10.0 mi WSW 10.4 mph - N/A   Clear
12:35 PM 68.0 °F - 41.0 °F 37% 30.16 in 10.0 mi SSW 8.1 mph - N/A   Clear
12:55 PM 68.0 °F - 41.0 °F 37% 30.15 in 10.0 mi SSW 9.2 mph - N/A   Clear
1:15 PM 69.8 °F - 41.0 °F 35% 30.14 in 10.0 mi SW 9.2 mph - N/A   Clear
1:35 PM 69.8 °F - 41.0 °F 35% 30.14 in 10.0 mi SW 11.5 mph - N/A   Clear
1:55 PM 69.8 °F - 39.2 °F 33% 30.13 in 10.0 mi SW 8.1 mph 18.4 mph N/A   Clear
2:15 PM 69.8 °F - 39.2 °F 33% 30.12 in 10.0 mi WSW 12.7 mph - N/A   Clear
2:35 PM 69.8 °F - 37.4 °F 31% 30.12 in 10.0 mi SW 9.2 mph 16.1 mph N/A   Clear
2:55 PM 69.8 °F - 37.4 °F 31% 30.11 in 10.0 mi SW 8.1 mph - N/A   Clear
3:15 PM 69.8 °F - 37.4 °F 31% 30.11 in 10.0 mi WSW 12.7 mph 17.3 mph N/A   Clear
3:35 PM 69.8 °F - 37.4 °F 31% 30.11 in 10.0 mi WSW 9.2 mph - N/A   Clear
3:55 PM 69.8 °F - 37.4 °F 31% 30.11 in 10.0 mi WSW 10.4 mph - N/A   Clear
4:15 PM 69.8 °F - 37.4 °F 31% 30.11 in 10.0 mi SW 11.5 mph - N/A   Clear
4:35 PM 69.8 °F - 37.4 °F 31% 30.11 in 10.0 mi WSW 8.1 mph - N/A   Clear
4:55 PM 68.0 °F - 37.4 °F 33% 30.11 in 10.0 mi WSW 5.8 mph - N/A   Clear
5:15 PM 66.2 °F - 37.4 °F 35% 30.11 in 10.0 mi WSW 3.5 mph - N/A   Clear
5:35 PM 60.8 °F - 42.8 °F 52% 30.11 in 10.0 mi Calm Calm - N/A   Clear
5:55 PM 55.4 °F - 44.6 °F 67% 30.12 in 10.0 mi Calm Calm - N/A   Clear
6:15 PM 51.8 °F - 46.4 °F 82% 30.12 in 10.0 mi Calm Calm - N/A   Clear
6:35 PM 51.8 °F - 46.4 °F 82% 30.12 in 10.0 mi Calm Calm - N/A   Clear
6:55 PM 53.6 °F - 48.2 °F 82% 30.13 in 10.0 mi Calm Calm - N/A   Clear
7:15 PM 51.8 °F - 46.4 °F 82% 30.13 in 10.0 mi Calm Calm - N/A   Clear
7:35 PM 51.8 °F - 50.0 °F 94% 30.13 in 10.0 mi Calm Calm - N/A   Clear
7:55 PM 51.8 °F - 48.2 °F 88% 30.13 in 10.0 mi Calm Calm - N/A   Clear
8:15 PM 50.0 °F - 46.4 °F 87% 30.13 in 10.0 mi Calm Calm - N/A   Clear
8:35 PM 50.0 °F - 46.4 °F 87% 30.13 in 10.0 mi Calm Calm - N/A   Clear
8:55 PM 48.2 °F - 44.6 °F 87% 30.14 in 7.0 mi Calm Calm - N/A   Clear
9:15 PM 48.2 °F - 46.4 °F 93% 30.14 in 4.0 mi Calm Calm - N/A   Clear
9:35 PM 46.4 °F - 46.4 °F 100% 30.14 in 10.0 mi Calm Calm - N/A   Clear
9:55 PM 46.4 °F - 44.6 °F 93% 30.14 in 7.0 mi Calm Calm - N/A   Clear
10:15 PM 46.4 °F - 44.6 °F 93% 30.14 in 0.2 mi Calm Calm - N/A   Unknown
10:35 PM 44.6 °F - 44.6 °F 100% 30.14 in 1.0 mi Calm Calm - N/A   Unknown
10:55 PM 46.4 °F 45.2 °F 44.6 °F 93% 30.14 in 0.8 mi WSW 3.5 mph - N/A   Unknown
11:15 PM 44.6 °F - 44.6 °F 100% 30.13 in 5.0 mi Calm Calm - N/A   Clear
11:35 PM 44.6 °F - 44.6 °F 100% 30.13 in 10.0 mi Calm Calm - N/A   Clear
11:55 PM 44.6 °F - 44.6 °F 100% 30.13 in 10.0 mi Calm Calm - N/A   Clear